COSMOS 397 DEB, 5088

Orbit data source: Space-Track

COSMOS 397 DEB, 5088 is space debris in LEO originally from a launch on Thu, 25 Feb 1971 UTC launched from the Tyuratam Missile And Space Complex (TTMTR). Debris objects in space refer to the collection of defunct objects orbiting the Earth. Examples of debris include non-operational satellites, rocket bodies, and fragments generated from explosions, collisions, or faulty payload assembly.

Loading next visibility...
Identifier
5088, 1971-015Q
Orbit
LEO
Country
Flag of CISCIS
Related business
Manufacturer
Unknown
Mission
Spacecraft
Bus & Motor
Unknown
Mass
Unknown
Launch date (UTC)
1971-02-25 (55 years ago)
Launch vehicle
Unknown
Launch site
Tyuratam Missile And Space Complex (TTMTR)
Object type
Payload
Rocket body
Debris
Shape & HBR
Unknown shape, 0.2 m
Radar Cross Section
Medium (>0.1 m² and <1 m²)

Expand to show TLE details & history
Last TLE update: 14 hours ago

TLE from 14 hours ago
0 COSMOS 397 DEB
1 05088U 71015Q   25349.95593016  .00001904  00000-0  71500-3 0  9996
2 05088  65.7079 241.8484 0794900 346.9630  11.1872 13.28772120602649
Epoch: 2025-12-15T22:56Z
TLE epoch observation values (Epoch: 2025-12-15T22:56:32.365Z)
Latitude
-0.00013°
Longitude
172.86642°
Altitude
568.173 km
Speed
7.866 km/s
True Right ascension
16h 07m 23s
True Declination
0° 00' 00"
Sunlit
Object was in daylight at epoch
Visualization orbit readout
Latitude
Unknown
Longitude
Unknown
Altitude
Unknown
Speed
Unknown
Apparent Right ascension
Unknown
Apparent Declination
Unknown
Sunlit
N/A
Visualization observer readout
Local Sidereal Time
11:31:06
Azimuth
Unknown
Elevation
Unknown
Doppler factor
Unknown
Orbital elements
Apogee altitude
1,748.357 km
Perigee altitude
551.542 km
Semi-major axis
7,528.087 km
Eccentricity
0.07949
Inclination
65.7079°
RAAN
241.8484°
Arg. of periapsis
346.963°
True anomaly
13.14401°
Mean anomaly
11.1872°
Eccentric anomaly
12.14543°
Mean motion
3.32289 °/min
Orbital period
108.34 mins
BSTAR
0.000715
Loading maneuver chart data...
Computing Atmospheric mass density...
Loading historical data...
Loading historical data...
Loading historical data...
Loading historical data...
Loading historical data...
Loading historical data...
Loading historical data...

Documentation

Showing up to 5 results
|